Weather History for Highgate, VT

Change the Weather History Date:

Sunday, August 4, 2013

  Actual Average (KPBG) Record (KPBG)
Temperature  
Mean Temperature 66 °F 69 °F  
Max Temperature 74 °F 80 °F 94 °F (1955)
Min Temperature 59 °F 59 °F 49 °F (1972)
Cooling Degree Days 1 4  
Month to date cooling degree days 16  
Year to date cooling degree days 229  
Since 1 June cooling degree days 221  
Growing Degree Days 16 (Base 50)    
Moisture  
Dew Point 55 °F    
Average Humidity 73    
Maximum Humidity 87    
Minimum Humidity 53    
Precipitation  
Precipitation 0.00 in - 1.22 in (1992)
Month to date precipitation  
Year to date precipitation  
Sea Level Pressure  
Sea Level Pressure 29.85 in    
Wind  
Wind Speed 2 mph (WNW)    
Max Wind Speed 9 mph    
Max Gust Speed -    
Visibility 10 miles    
Events Rain    
T = Trace of Precipitation, MM = Missing Value Source: NWS Daily Summary

Daily Weather History Graph

Daily Weather History Graph

Search for Another Location

Airport:

Trip Planner

Search our weather history database for the weather conditions in past years. The results will help you decide how hot, cold, wet, or windy it might be!

Date:

Astronomy

Aug. 04, 2013 Rise Set
Actual Time 5:41 AM EDT 8:14 PM EDT
Civil Twilight 5:08 AM EDT 8:47 PM EDT
Nautical Twilight 4:26 AM EDT 9:29 PM EDT
Astronomical Twilight 3:38 AM EDT 10:16 PM EDT
Moon 3:39 AM EDT (8/4) 6:35 PM EDT (8/4)
Length of Visible Light 15h 39m
Length of Day
14h 32m
Waning Crescent, 5% of the Moon is Illuminated
Aug 4
Waning Crescent
Aug 6
New
Aug 14
First Quarter
Aug 20
Full
Aug 28
Last Quarter

Hourly Weather History & Observations

Time (EDT) Temp. Dew Point Humidity Pressure Visibility Wind Dir Wind Speed Gust Speed Precip Events Conditions
12:15 AM 61.7 °F 56.3 °F 82% 29.82 in 10.0 mi Calm Calm - N/A   Overcast
12:35 AM 60.8 °F 55.4 °F 82% 29.82 in 10.0 mi Calm Calm - N/A   Scattered Clouds
12:55 AM 59.4 °F 54.7 °F 84% 29.82 in 10.0 mi Calm Calm - N/A   Scattered Clouds
1:15 AM 59.4 °F 55.4 °F 87% 29.82 in 10.0 mi Calm Calm - N/A   Clear
1:35 AM 59.4 °F 55.6 °F 87% 29.82 in 10.0 mi Calm Calm - N/A   Scattered Clouds
1:55 AM 59.4 °F 55.6 °F 87% 29.81 in 10.0 mi Calm Calm - N/A   Scattered Clouds
2:15 AM 60.8 °F 56.3 °F 85% 29.81 in 10.0 mi Calm Calm - N/A   Mostly Cloudy
2:35 AM 60.8 °F 55.6 °F 83% 29.81 in 10.0 mi Calm Calm - N/A   Overcast
2:55 AM 61.0 °F 56.3 °F 85% 29.80 in 10.0 mi Calm Calm - N/A   Overcast
3:15 AM 61.9 °F 56.3 °F 82% 29.81 in 10.0 mi Calm Calm - N/A   Overcast
3:35 AM 61.5 °F 56.1 °F 82% 29.80 in 10.0 mi Calm Calm - N/A   Overcast
3:55 AM 61.0 °F 54.9 °F 80% 29.80 in 10.0 mi Calm Calm - N/A   Scattered Clouds
4:15 AM 60.8 °F 54.7 °F 80% 29.80 in 10.0 mi Calm Calm - N/A   Clear
4:35 AM 60.6 °F 54.5 °F 80% 29.80 in 10.0 mi Calm Calm - N/A   Clear
4:55 AM 60.6 °F 54.5 °F 80% 29.81 in 10.0 mi Calm Calm - N/A   Clear
5:15 AM 59.7 °F 54.1 °F 82% 29.81 in 10.0 mi Calm Calm - N/A   Clear
5:35 AM 59.4 °F 54.1 °F 83% 29.81 in 10.0 mi Calm Calm - N/A   Scattered Clouds
5:55 AM 59.4 °F 53.8 °F 82% 29.82 in 10.0 mi Calm Calm - N/A   Scattered Clouds
6:15 AM 59.4 °F 54.9 °F 85% 29.82 in 10.0 mi Calm Calm - N/A   Scattered Clouds
6:35 AM 60.1 °F 55.0 °F 83% 29.82 in 10.0 mi Calm Calm - N/A   Scattered Clouds
6:55 AM 60.8 °F 55.0 °F 81% 29.83 in 10.0 mi Calm Calm - N/A   Overcast
7:15 AM 60.8 °F 54.7 °F 80% 29.83 in 10.0 mi Calm Calm - N/A   Overcast
7:35 AM 61.9 °F 55.8 °F 80% 29.84 in 10.0 mi Calm Calm - N/A   Overcast
7:55 AM 62.2 °F 55.6 °F 79% 29.84 in 10.0 mi WSW 4.6 mph - N/A   Overcast
8:15 AM 62.2 °F 55.2 °F 78% 29.84 in 10.0 mi SW 4.6 mph - N/A   Overcast
8:35 AM 62.6 °F 55.4 °F 77% 29.84 in 10.0 mi West 4.6 mph - N/A   Overcast
8:55 AM 62.8 °F 55.4 °F 77% 29.84 in 10.0 mi West 3.5 mph - N/A   Overcast
9:15 AM 64.4 °F 56.7 °F 76% 29.83 in 10.0 mi Calm Calm - N/A   Overcast
9:35 AM 66.7 °F 56.7 °F 70% 29.84 in 10.0 mi West 6.9 mph - N/A   Overcast
9:55 AM 64.4 °F 55.4 °F 73% 29.84 in 10.0 mi West 5.8 mph - N/A   Overcast
10:15 AM 66.6 °F 57.2 °F 72% 29.84 in 10.0 mi West 4.6 mph - N/A   Overcast
10:35 AM 64.8 °F 57.4 °F 77% 29.84 in 7.0 mi WNW 4.6 mph - N/A Rain Light Rain
10:55 AM 69.4 °F 60.3 °F 73% 29.84 in 10.0 mi WNW 4.6 mph - N/A   Mostly Cloudy
11:15 AM 69.4 °F 58.5 °F 68% 29.84 in 10.0 mi West 5.8 mph - N/A   Mostly Cloudy
11:35 AM 69.4 °F 56.5 °F 63% 29.84 in 10.0 mi WNW 8.1 mph - N/A   Mostly Cloudy
11:55 AM 69.4 °F 56.3 °F 63% 29.84 in 10.0 mi WNW 5.8 mph - N/A   Mostly Cloudy
12:15 PM 68.7 °F 58.8 °F 71% 29.84 in 7.0 mi West 3.5 mph - N/A Rain Light Rain
12:35 PM 67.1 °F 57.6 °F 71% 29.84 in 10.0 mi WNW 9.2 mph - N/A Rain Light Rain
12:55 PM 67.8 °F 56.7 °F 67% 29.84 in 10.0 mi West 5.8 mph - N/A Rain Light Rain
1:15 PM 65.1 °F 56.1 °F 73% 29.84 in 10.0 mi West 3.5 mph - N/A   Mostly Cloudy
1:35 PM 71.1 °F 58.6 °F 65% 29.84 in 10.0 mi West 4.6 mph - N/A   Scattered Clouds
1:55 PM 67.5 °F 57.9 °F 71% 29.84 in 10.0 mi WNW 8.1 mph - N/A Rain Light Rain
2:15 PM 67.3 °F 58.8 °F 74% 29.84 in 10.0 mi West 3.5 mph - N/A   Mostly Cloudy
2:35 PM 69.4 °F 57.0 °F 65% 29.83 in 10.0 mi West 4.6 mph - N/A   Clear
2:55 PM 73.9 °F 57.6 °F 56% 29.83 in 10.0 mi WNW 5.8 mph - N/A   Scattered Clouds
3:15 PM 62.2 °F 51.1 °F 67% 29.84 in 4.0 mi North 3.5 mph - N/A Rain Rain
3:35 PM 63.7 °F 55.8 °F 75% 29.84 in 10.0 mi Calm Calm - N/A   Mostly Cloudy
3:55 PM 67.1 °F 55.0 °F 65% 29.84 in 10.0 mi WNW 6.9 mph - N/A   Scattered Clouds
4:15 PM 69.4 °F 55.6 °F 61% 29.84 in 10.0 mi West 6.9 mph - N/A   Clear
4:35 PM 69.4 °F 53.6 °F 57% 29.84 in 10.0 mi WNW 8.1 mph - N/A   Scattered Clouds
4:55 PM 69.4 °F 54.0 °F 58% 29.84 in 10.0 mi WNW 6.9 mph - N/A   Mostly Cloudy
5:15 PM 69.4 °F 54.1 °F 58% 29.85 in 10.0 mi NW 9.2 mph - N/A   Overcast
5:35 PM 69.4 °F 51.8 °F 53% 29.84 in 10.0 mi WNW 9.2 mph - N/A   Mostly Cloudy
5:55 PM 69.4 °F 53.2 °F 56% 29.84 in 10.0 mi WNW 4.6 mph - N/A   Scattered Clouds
6:15 PM 69.4 °F 53.6 °F 57% 29.85 in 10.0 mi WNW 4.6 mph - N/A   Clear
6:35 PM 68.5 °F 52.5 °F 57% 29.87 in 10.0 mi NW 9.2 mph - N/A   Scattered Clouds
6:55 PM 67.1 °F 52.2 °F 59% 29.87 in 10.0 mi WNW 6.9 mph - N/A   Clear
7:15 PM 68.9 °F 54.7 °F 60% 29.88 in 10.0 mi NW 3.5 mph - N/A   Scattered Clouds
7:35 PM 69.1 °F 53.2 °F 57% 29.88 in 10.0 mi West 5.8 mph - N/A   Scattered Clouds
7:55 PM 64.9 °F 51.4 °F 62% 29.89 in 10.0 mi NW 3.5 mph - N/A   Clear
8:15 PM 62.8 °F 51.3 °F 66% 29.90 in 10.0 mi Calm Calm - N/A   Clear
8:35 PM 61.9 °F 51.6 °F 69% 29.90 in 10.0 mi Calm Calm - N/A   Clear
8:55 PM 61.9 °F 52.7 °F 72% 29.91 in 10.0 mi Calm Calm - N/A   Scattered Clouds
9:15 PM 61.9 °F 53.1 °F 73% 29.91 in 10.0 mi West 3.5 mph - N/A   Mostly Cloudy
9:35 PM 61.9 °F 52.9 °F 72% 29.92 in 10.0 mi West 5.8 mph - N/A   Overcast
9:55 PM 61.9 °F 52.7 °F 72% 29.92 in 10.0 mi Calm Calm - N/A   Overcast
10:15 PM 60.8 °F 52.2 °F 73% 29.92 in 10.0 mi West 5.8 mph - N/A   Mostly Cloudy
10:35 PM 60.8 °F 52.7 °F 75% 29.92 in 10.0 mi West 4.6 mph - N/A   Mostly Cloudy
10:55 PM 60.8 °F 53.2 °F 76% 29.92 in 10.0 mi WNW 6.9 mph - N/A   Overcast
11:15 PM 60.8 °F 53.1 °F 76% 29.93 in 10.0 mi WNW 3.5 mph - N/A   Overcast
11:35 PM 60.8 °F 52.9 °F 75% 29.93 in 10.0 mi NW 4.6 mph - N/A   Overcast
11:55 PM 60.8 °F 53.1 °F 76% 29.93 in 10.0 mi WNW 4.6 mph - N/A   Overcast